Regional Weather Roundup
Issued by NWS Newport/Morehead, NC

Home | Current Version | Previous Version | Text Only | Print | Product List | Glossary On
Versions: 1 2 3 4 5 6 7 8 9 10 11 12 13 14 15 16 17 18 19 20 21 22 23 24 25 26 27 28 29 30 31 32 33 34 35 36 37 38 39 40 41 42 43 44 45 46 47 48 49 50
000
ASUS42 KMHX 270625
RWRMHX
WEATHER ROUNDUP FOR EASTERN NORTH CAROLINA
NATIONAL WEATHER SERVICE NEWPORT/MOREHEAD CITY NC
200 AM EDT SAT AUG 27 2016

NOTE: "FAIR" INDICATES FEW OR NO CLOUDS BELOW 12,000 FEET
WITH NO SIGNIFICANT WEATHER AND/OR OBSTRUCTIONS TO VISIBILITY

NCZ015>017-031-032-045>047-102-103-270700-
NORTH COAST

CITY           SKY/WX    TMP DP  RH WIND       PRES   REMARKS
EDENTON        CLEAR     81  76  87 SW6       30.09S
ELIZABETH CITY CLEAR     76  73  91 CALM      30.08S
KITTY HAWK     PTCLDY    79  76  91 SW5       30.07S
MANTEO         CLEAR     79  74  85 W7        30.08S

$$

NCZ045>047-081-094-103-104-270700-
CENTRAL COAST

CITY           SKY/WX    TMP DP  RH WIND       PRES   REMARKS
FRISCO         PTCLDY    80  71  74 S5        30.08S

$$

NCZ095-097-098-100-101-270700-
SOUTHERN COAST

CITY           SKY/WX    TMP DP  RH WIND       PRES   REMARKS
BEAUFORT       CLEAR     73  71  93 CALM      30.08S
CEDAR ISLAND   NOT AVBL
JACKSONVILLE   CLEAR     74  71  91 CALM      30.08S
PINEY ISLAND   NOT AVBL
WILMINGTON     CLEAR     73  71  93 CALM      30.09S


$$

NCZ011>013-027>030-043-044-078>080-089-090>093-098-270700-
COASTAL PLAIN

CITY           SKY/WX    TMP DP  RH WIND       PRES   REMARKS
AHOSKIE        CLEAR     74  73  95 CALM      30.08S
CLINTON        CLEAR     74  74  98 CALM      30.10S
ELIZABETHTOWN  CLEAR     75  74  98 CALM      30.09F
GOLDSBORO      CLEAR     77  72  83 CALM      30.08F
GREENVILLE     CLEAR     77  73  88 CALM      30.10S
HAVELOCK       CLEAR     74  71  91 CALM      30.09F
KENANSVILLE    CLEAR     72  72 100 CALM      30.10S
KINSTON        CLEAR     74  72  93 CALM      30.10S
NEW BERN       CLEAR     74  71  91 CALM      30.10S
RICHLANDS      CLEAR     71  70  96 CALM      30.10S
ROCKY MOUNT    CLEAR     77  75  93 S5        30.08F
WASHINGTON     CLEAR     75  72  90 SW3       30.08F
WHITEVILLE     CLEAR     73  71  95 CALM      30.09F

$$

AMZ130-135-150-152-154-156-158-170-250-252-270-ANZ085-086-088-633-658-670-270700-
MARINE OBSERVATIONS

STATION/POSITION TIME  TEMP    WIND        PRES    WAVE   SWELL
                       AIR SEA DIR/SP/G            HT/PER HT/PER
                 (UTC) (F)     (DEG/KT/KT) (MB)    (FT/S) (FT/S)
CHESAPEAKE LIGHT NOT AVBL
64 E VA BEACH    0550   81 80  240/ 10/ 12 1017.9    2/ 8   2/ 8
DUCK             0600   80 74  240/  6/  9 1017.7
2 E DUCK         0511      79                N/A     2/ 7
OREGON INLET     0500   81 82  210/  7/  8 1018.5
13E OREGON INLT  0600      81                N/A     2/ 7   2/ 7
HATTERAS CG      0500   81 83  180/  1/  3 1018.3
DIAMOND BUOY     0550   81 85  160/  6/  8 1018.8    2/ 8   2/ 8
CAPE LOOKOUT     0600   81     150/  5/  6 1018.5
BEAUFORT LAB     0600   80 82  170/  3/  4 1018.1
30 SE NEW RVR IN 0608   82 84  140/  6/  8 1018.7
30 SE NEW RVR IN 0525      84                N/A     3/11   2/11
27 SE WRIGHTSVLE 0608   82 84  130/  6/ 10 1018.8
5 SE WRIGHTSVLE  0508   82 83  150/  6/  8 1019.7
225 S CAPE HAT   0550   82 84   80/ 10/ 12 1016.9    4/10   3/10
41 SE CHARLESTON 0550   82 84   60/  8/  8 1017.3    3/ 8   2/ 8

$$




USA.gov is the U.S. government's official web portal to all federal, state and local government web resources and services.